Location: Dziadowski
(50.3833°N, 20.0333°E)
Time: 18:33:50
(UTC+00:00)

ATLAS 2AS CENTAUR R/B - Visible Passes

Search period start: 11 April 2026 00:00
Search period end: 21 April 2026 00:00
Orbit: 1051 x 1159 km, 63.7° (Epoch: 11 April)

Date Brightness Start Highest point End Pass type
(mag) Time Alt. Az. Time Alt. Az. Time Alt. Az.
11 Apr 2.7 01:03:36 45° SSW 01:05:52 73° SE 01:12:42 10° NE visible
11 Apr 3.5 02:51:00 11° W 02:57:16 41° NNW 03:03:40 10° NE visible
12 Apr 3.0 00:19:51 47° SSE 00:20:57 51° ESE 00:27:30 10° NE visible
12 Apr 3.1 02:07:15 21° WSW 02:11:54 52° NW 02:18:33 10° NE visible
12 Apr 3.6 23:36:05 34° ESE 23:36:08 34° ESE 23:42:11 10° NE visible
13 Apr 2.8 01:23:28 34° WSW 01:26:39 70° NW 01:33:29 10° NE visible
13 Apr 3.9 03:12:39 10° W 03:18:41 31° NNW 03:24:39 10° NE visible
13 Apr 4.2 22:52:16 22° E 22:52:16 22° E 22:56:34 10° ENE visible
14 Apr 2.6 00:39:40 53° SW 00:41:32 87° SE 00:48:24 10° NE visible
14 Apr 3.7 02:27:03 11° W 02:33:10 37° NNW 02:39:25 10° NE visible
14 Apr 4.7 22:08:25 13° E 22:08:25 13° E 22:10:16 10° ENE visible
14 Apr 2.7 23:55:48 59° SSE 23:56:32 62° SE 00:03:16 10° NE visible
15 Apr 3.4 01:43:12 20° W 01:47:44 46° NNW 01:54:15 10° NE visible
15 Apr 3.3 23:11:55 43° ESE 23:11:55 43° ESE 23:18:02 10° NE visible
16 Apr 3.0 00:59:18 33° WSW 01:02:25 59° NW 01:09:10 10° NE visible
16 Apr 4.1 02:48:46 10° WNW 02:54:39 29° NNW 03:00:29 10° NE visible
16 Apr 3.9 22:27:59 27° E 22:27:59 27° E 22:32:36 10° ENE visible
17 Apr 2.7 00:15:22 52° WSW 00:17:14 79° NW 00:24:06 10° NE visible
17 Apr 3.9 02:02:56 10° W 02:09:05 33° NNW 02:15:11 10° NE visible
17 Apr 4.4 21:44:01 17° E 21:44:01 17° E 21:46:47 10° ENE visible
17 Apr 2.5 23:31:24 68° S 23:32:10 76° SE 23:39:00 10° NE visible
18 Apr 3.6 01:18:47 17° W 01:23:36 40° NNW 01:29:59 10° NE visible
18 Apr 2.9 22:47:23 53° ESE 22:47:23 53° ESE 22:53:50 10° NE visible
19 Apr 3.3 00:34:46 28° W 00:38:14 51° NW 00:44:52 10° NE visible
19 Apr 4.3 02:24:53 10° WNW 02:30:39 28° N 02:36:23 10° NE visible
19 Apr 3.5 22:03:19 34° E 22:03:19 34° E 22:08:31 10° NE visible
19 Apr 2.9 23:50:42 44° WSW 23:52:59 67° NW 23:59:47 10° NE visible
20 Apr 4.1 01:39:02 10° WNW 01:45:03 31° NNW 01:50:59 10° NE visible
20 Apr 4.0 21:19:12 22° E 21:19:12 22° E 21:22:57 10° ENE visible
20 Apr 2.6 23:06:34 63° SW 23:07:50 90° SE 23:14:43 10° NE visible
